• Em Portugal
  • Lista de países
  • Para 7 dias
  • Temperatura da água
  • Mapas de satélite
  • Mapa do tempo
  • Widgets de tempo
  • user-avatar
    Iniciar Sessão

    Previsão horária em Neuquén

    Hoje, 22 Abril, Domingo

    Tempo Temperatura Precipitação Vento Pressão Humidade
    00:00 +20°C° 0 mm 4 m/s 730 mmHg 41%
    01:00 +19°C° 0 mm 5 m/s 730 mmHg 42%
    02:00 +19°C° 0 mm 5 m/s 730 mmHg 42%
    03:00 +19°C° 0 mm 6 m/s 730 mmHg 43%
    04:00 +19°C° 0 mm 6 m/s 730 mmHg 44%
    05:00 +19°C° 0 mm 6 m/s 731 mmHg 45%
    06:00 +19°C° 0 mm 5 m/s 731 mmHg 46%
    07:00 +19°C° 0 mm 5 m/s 732 mmHg 48%
    08:00 +20°C° 0 mm 6 m/s 733 mmHg 43%
    09:00 +22°C° 0 mm 7 m/s 733 mmHg 38%
    10:00 +24°C° 0 mm 8 m/s 733 mmHg 33%
    11:00 +24°C° 0 mm 8 m/s 733 mmHg 31%
    12:00 +26°C° 0 mm 7 m/s 733 mmHg 29%
    13:00 +26°C° 0 mm 7 m/s 733 mmHg 27%
    14:00 +26°C° 0 mm 7 m/s 734 mmHg 27%
    15:00 +26°C° 0 mm 7 m/s 734 mmHg 28%
    16:00 +24°C° 0 mm 6 m/s 734 mmHg 29%
    17:00 +23°C° 0 mm 6 m/s 734 mmHg 32%
    18:00 +21°C° 0 mm 5 m/s 734 mmHg 35%
    19:00 +20°C° 0 mm 5 m/s 735 mmHg 38%
    20:00 +20°C° 0 mm 4 m/s 735 mmHg 38%
    21:00 +20°C° 0 mm 4 m/s 736 mmHg 39%
    22:00 +19°C° 0 mm 4 m/s 736 mmHg 39%
    23:00 +19°C° 0,1 mm 4 m/s 737 mmHg 42%

    Amanhã, 23 Abril, Segunda-feira

    Tempo Temperatura Precipitação Vento Pressão Humidade
    00:00 +18°C° 0,1 mm 4 m/s 737 mmHg 45%
    01:00 +17°C° 0,1 mm 5 m/s 737 mmHg 47%
    02:00 +16°C° 0 mm 5 m/s 737 mmHg 50%
    03:00 +16°C° 0 mm 5 m/s 737 mmHg 53%
    04:00 +15°C° 0 mm 5 m/s 737 mmHg 55%
    05:00 +15°C° 0 mm 5 m/s 737 mmHg 58%
    06:00 +14°C° 0 mm 5 m/s 738 mmHg 60%
    07:00 +14°C° 0 mm 6 m/s 738 mmHg 63%
    08:00 +14°C° 0 mm 6 m/s 738 mmHg 62%
    09:00 +15°C° 0 mm 6 m/s 738 mmHg 61%
    10:00 +15°C° 0 mm 6 m/s 739 mmHg 60%
    11:00 +16°C° 0 mm 6 m/s 738 mmHg 57%
    12:00 +17°C° 0 mm 5 m/s 738 mmHg 54%
    13:00 +19°C° 0 mm 5 m/s 738 mmHg 50%
    14:00 +19°C° 0 mm 5 m/s 738 mmHg 50%
    15:00 +19°C° 0 mm 5 m/s 737 mmHg 50%
    16:00 +19°C° 0 mm 5 m/s 737 mmHg 50%
    17:00 +19°C° 0 mm 5 m/s 738 mmHg 51%
    18:00 +17°C° 0 mm 5 m/s 738 mmHg 53%
    19:00 +16°C° 0 mm 6 m/s 738 mmHg 54%
    20:00 +16°C° 0 mm 5 m/s 738 mmHg 56%
    21:00 +15°C° 0 mm 5 m/s 738 mmHg 57%
    22:00 +14°C° 0 mm 5 m/s 738 mmHg 59%
    23:00 +14°C° 0 mm 5 m/s 738 mmHg 61%

    Depois de amanhã, 24 Abril, Terça-feira

    Tempo Temperatura Precipitação Vento Pressão Humidade
    00:00 +13°C° 0 mm 4 m/s 737 mmHg 63%
    01:00 +13°C° 0 mm 4 m/s 737 mmHg 65%
    02:00 +13°C° 0 mm 4 m/s 737 mmHg 65%
    03:00 +12°C° 0 mm 4 m/s 736 mmHg 66%
    04:00 +12°C° 0 mm 4 m/s 736 mmHg 67%
    05:00 +12°C° 0 mm 4 m/s 736 mmHg 67%
    06:00 +12°C° 0 mm 4 m/s 737 mmHg 66%
    07:00 +12°C° 0 mm 4 m/s 737 mmHg 66%
    08:00 +13°C° 0 mm 3 m/s 737 mmHg 65%
    09:00 +14°C° 0 mm 3 m/s 737 mmHg 64%
    10:00 +14°C° 0 mm 3 m/s 737 mmHg 63%
    11:00 +16°C° 0 mm 3 m/s 737 mmHg 61%
    12:00 +17°C° 0 mm 2 m/s 736 mmHg 59%
    13:00 +18°C° 0 mm 2 m/s 736 mmHg 57%
    14:00 +18°C° 0 mm 2 m/s 736 mmHg 56%
    15:00 +18°C° 0 mm 2 m/s 736 mmHg 55%
    16:00 +19°C° 0 mm 2 m/s 735 mmHg 54%
    17:00 +18°C° 0 mm 2 m/s 736 mmHg 58%
    18:00 +17°C° 0 mm 2 m/s 736 mmHg 62%
    19:00 +16°C° 0 mm 2 m/s 736 mmHg 66%
    20:00 +16°C° 0 mm 2 m/s 736 mmHg 69%
    21:00 +15°C° 0 mm 2 m/s 736 mmHg 72%
    22:00 +15°C° 0 mm 2 m/s 736 mmHg 74%
    23:00 +14°C° 0 mm 2 m/s 736 mmHg 77%

    25 Abril, Quarta-feira

    Tempo Temperatura Precipitação Vento Pressão Humidade
    00:00 +14°C° 0 mm 1 m/s 736 mmHg 80%
    01:00 +14°C° 0 mm 1 m/s 736 mmHg 83%
    02:00 +14°C° 0 mm 2 m/s 735 mmHg 84%
    03:00 +14°C° 0 mm 2 m/s 735 mmHg 85%
    04:00 +13°C° 0 mm 2 m/s 734 mmHg 87%
    05:00 +14°C° 0 mm 2 m/s 734 mmHg 87%
    06:00 +13°C° 0 mm 3 m/s 734 mmHg 88%
    07:00 +13°C° 0 mm 3 m/s 734 mmHg 88%
    08:00 +15°C° 0 mm 4 m/s 734 mmHg 83%
    09:00 +16°C° 0 mm 6 m/s 733 mmHg 78%
    10:00 +17°C° 0 mm 7 m/s 733 mmHg 73%
    11:00 +20°C° 0 mm 7 m/s 732 mmHg 66%
    12:00 +22°C° 0 mm 8 m/s 731 mmHg 59%
    13:00 +24°C° 0 mm 8 m/s 730 mmHg 52%
    14:00 +24°C° 0 mm 7 m/s 730 mmHg 48%
    15:00 +26°C° 0 mm 7 m/s 729 mmHg 44%
    16:00 +26°C° 0 mm 6 m/s 729 mmHg 40%
    17:00 +24°C° 0 mm 6 m/s 729 mmHg 45%
    18:00 +23°C° 0 mm 6 m/s 729 mmHg 50%
    19:00 +21°C° 0 mm 6 m/s 729 mmHg 56%
    20:00 +21°C° 0 mm 6 m/s 728 mmHg 58%
    21:00 +20°C° 0 mm 6 m/s 728 mmHg 61%
    22:00 +20°C° 0 mm 6 m/s 728 mmHg 63%
    23:00 +19°C° 0 mm 6 m/s 727 mmHg 70%

    26 Abril, Quinta-feira

    Tempo Temperatura Precipitação Vento Pressão Humidade
    00:00 +19°C° 0 mm 5 m/s 726 mmHg 77%
    01:00 +17°C° 0 mm 5 m/s 726 mmHg 85%
    02:00 +18°C° 0 mm 4 m/s 725 mmHg 87%
    03:00 +17°C° 0 mm 4 m/s 725 mmHg 88%
    04:00 +17°C° 0 mm 3 m/s 725 mmHg 90%
    05:00 +17°C° 0 mm 3 m/s 724 mmHg 79%
    06:00 +17°C° 0 mm 3 m/s 724 mmHg 67%
    07:00 +18°C° 0 mm 4 m/s 724 mmHg 56%
    08:00 +20°C° 0 mm 5 m/s 724 mmHg 45%
    09:00 +23°C° 0 mm 7 m/s 723 mmHg 34%
    10:00 +26°C° 0 mm 8 m/s 723 mmHg 24%
    11:00 +28°C° 0 mm 10 m/s 722 mmHg 20%
    12:00 +29°C° 0 mm 12 m/s 722 mmHg 16%
    13:00 +31°C° 0 mm 14 m/s 721 mmHg 13%
    14:00 +28°C° 0 mm 14 m/s 722 mmHg 18%
    15:00 +24°C° 0 mm 15 m/s 723 mmHg 23%
    16:00 +20°C° 0 mm 16 m/s 723 mmHg 29%
    17:00 +19°C° 0 mm 15 m/s 725 mmHg 29%
    18:00 +17°C° 0 mm 14 m/s 727 mmHg 30%
    19:00 +14°C° 0 mm 13 m/s 729 mmHg 30%
    20:00 +14°C° 0 mm 13 m/s 729 mmHg 32%
    21:00 +13°C° 0 mm 13 m/s 730 mmHg 34%
    22:00 +12°C° 0 mm 13 m/s 731 mmHg 36%
    23:00 +12°C° 0 mm 13 m/s 731 mmHg 36%

    27 Abril, Sexta-feira

    Tempo Temperatura Precipitação Vento Pressão Humidade
    00:00 +10°C° 0 mm 13 m/s 732 mmHg 36%
    01:00 +9°C° 0 mm 13 m/s 733 mmHg 37%
    02:00 +9°C° 0 mm 13 m/s 733 mmHg 38%
    03:00 +8°C° 0 mm 13 m/s 733 mmHg 38%
    04:00 +8°C° 0 mm 12 m/s 734 mmHg 39%
    05:00 +7°C° 0 mm 11 m/s 734 mmHg 40%
    06:00 +7°C° 0 mm 10 m/s 735 mmHg 41%
    07:00 +7°C° 0 mm 9 m/s 735 mmHg 42%
    08:00 +8°C° 0 mm 9 m/s 736 mmHg 38%
    09:00 +10°C° 0 mm 8 m/s 736 mmHg 34%
    10:00 +12°C° 0 mm 8 m/s 737 mmHg 31%
    11:00 +14°C° 0 mm 7 m/s 737 mmHg 28%
    12:00 +14°C° 0 mm 6 m/s 736 mmHg 26%
    13:00 +15°C° 0 mm 5 m/s 736 mmHg 24%
    14:00 +15°C° 0 mm 5 m/s 736 mmHg 24%
    15:00 +15°C° 0 mm 4 m/s 736 mmHg 24%
    16:00 +15°C° 0 mm 4 m/s 736 mmHg 24%
    17:00 +14°C° 0 mm 3 m/s 736 mmHg 27%
    18:00 +13°C° 0 mm 3 m/s 737 mmHg 29%
    19:00 +13°C° 0 mm 2 m/s 737 mmHg 31%
    20:00 +13°C° 0 mm 2 m/s 737 mmHg 32%
    21:00 +12°C° 0 mm 2 m/s 737 mmHg 34%
    22:00 +12°C° 0 mm 1 m/s 737 mmHg 35%
    23:00 +11°C° 0 mm 1 m/s 737 mmHg 35%
    Mostrar mais